Location: Angola by the Bay
(38.6709°N, 75.1746°W)
Time: 07:27:58
(UTC+00:00)

DIWATA 2B (PO-101) - Pass Details

Date: 11 December 2024
Orbit: 569 x 582 km, 98.1° (Epoch: 18 January)

Event Time Altitude Azimuth Distance (km) Brightness Sun altitude
Rises 22:42:26 0° 360° (N) 2,786 ? -12.0°
Reaches altitude 10° 22:44:49 10° 348° (NNW) 1,882 ? -12.4°
Maximum altitude 22:48:15 27° 290° (WNW) 1,125 ? -13.1°
Drops below altitude 10° 22:51:38 10° 233° (SW) 1,866 ? -13.7°
Sets 22:54:00 0° 221° (SW) 2,758 ? -14.1°
